Weather History for LIMH - May, 2013

Change the Weather History Date:

Tuesday, May 14, 2013

  Actual Average Record
Temperature  
Mean Temperature 25 °F -  
Max Temperature 29 °F 31 °F 42 °F (1998)
Min Temperature 21 °F 21 °F 10 °F (2014)
Degree Days  
Heating Degree Days 40    
Moisture  
Dew Point 18 °F    
Average Humidity 72    
Maximum Humidity 100    
Minimum Humidity 47    
Precipitation  
Precipitation 0.01 in - - ()
Sea Level Pressure  
Sea Level Pressure 30.05 in    
Wind  
Wind Speed 11 mph ()    
Max Wind Speed 25 mph    
Max Gust Speed -    
Visibility 1.9 miles    
Events Fog , Snow    
Averages and records for this station are not official NWS values.
T = Trace of Precipitation, MM = Missing Value Source: Averaged Metar Reports

Daily Weather History Graph

Daily Weather History Graph

Search for Another Location

Airport or City:

Trip Planner

Search our weather history database for the weather conditions in past years. The results will help you decide how hot, cold, wet, or windy it might be!

Date:

Astronomy

May. 14, 2013 Rise Set
Actual Time 5:58 AM CEST 8:53 PM CEST
Civil Twilight 5:23 AM CEST 9:28 PM CEST
Nautical Twilight 4:39 AM CEST 10:13 PM CEST
Astronomical Twilight 3:46 AM CEST 11:06 PM CEST
Moon 9:23 AM CEST (5/14) No Moon Set
Length of Visible Light 16h 04m
Length of Day
14h 54m
Waxing Crescent, 17% of the Moon is Illuminated
May 14
Waxing Crescent
May 18
First Quarter
May 25
Full
May 31
Last Quarter
Jun 8
New

Hourly Weather History & Observations

Time (CEST) Temp. Windchill Dew Point Humidity Pressure Visibility Wind Dir Wind Speed Gust Speed Precip Events Conditions
1:55 AM 23.0 °F 18.4 °F 15.8 °F 74% 30.15 in - SW 3.5 mph - N/A   Clear
2:00 AM 23 °F - 15 °F 61%  in 7 mi SW 3.5 mph - -  
2:55 AM 23.0 °F 14.7 °F 15.8 °F 74% 30.12 in - SSW 6.9 mph - N/A   Clear
3:55 AM 23.0 °F 15.8 °F 17.6 °F 80% 30.12 in - South 5.8 mph - N/A   Clear
4:55 AM 23.0 °F 11.7 °F 15.8 °F 74% 30.12 in - SSW 11.5 mph - N/A   Clear
5:00 AM 23 °F - 15 °F 62%  in 9 mi SSW 11.5 mph - -  
5:55 AM 23.0 °F 11.7 °F 15.8 °F 74% 30.09 in - SSW 11.5 mph - N/A   Clear
6:55 AM 23.0 °F 10.1 °F 15.8 °F 74% 30.09 in - South 15.0 mph - N/A   Clear
7:55 AM 24.8 °F 11.5 °F 15.8 °F 69% 30.09 in 6.2 mi South 17.3 mph - N/A   Partly Cloudy
8:00 AM 24 °F - 16 °F 60%  in 44 mi South 17.3 mph - -   Scattered Clouds
8:55 AM 26.6 °F 14.3 °F 17.6 °F 69% 30.09 in - SSW 16.1 mph - N/A   Clear
9:55 AM 26.6 °F 14.3 °F 17.6 °F 69% 30.09 in - SSW 16.1 mph - N/A   Clear
10:55 AM 26.6 °F 13.4 °F 14.0 °F 59% 30.09 in - South 18.4 mph - N/A   Clear
11:00 AM 27 °F - 15 °F 47%  in 47 mi South 18.4 mph - -  
11:55 AM 28.4 °F 16.2 °F 17.6 °F 64% 30.09 in 6.2 mi South 17.3 mph - N/A   Scattered Clouds
12:55 PM 28.4 °F 15.8 °F 17.6 °F 64% 30.06 in 2.2 mi South 18.4 mph - N/A   Mist
1:55 PM 28.4 °F 18.5 °F 19.4 °F 69% 30.06 in 0.2 mi SSW 11.5 mph - N/A Fog Light Freezing Fog
2:00 PM 28 °F - 20 °F 62%  in 0 mi SSW 11.5 mph - - Fog Heavy Fog
2:55 PM 28.4 °F 16.2 °F 19.4 °F 69% 30.06 in 0.9 mi NNE 17.3 mph - N/A   Mist
3:55 PM 28.4 °F 16.2 °F 17.6 °F 64% 30.04 in 0.9 mi NNE 17.3 mph - N/A   Mostly Cloudy
4:55 PM 28.4 °F 16.2 °F 19.4 °F 69% 30.04 in 0.9 mi NNE 17.3 mph - N/A   Mostly Cloudy
5:00 PM 28 °F - 20 °F 60%  in 1 mi NNE 17.3 mph - -   Mist
5:55 PM 26.6 °F 13.8 °F 17.6 °F 69% 30.01 in 0.5 mi NNE 17.3 mph - N/A Fog Light Freezing Fog
6:55 PM 26.6 °F - 21.2 °F 80% 29.98 in 0.1 mi Calm Calm - N/A Fog Light Freezing Fog
8:00 PM 25 °F - 22 °F 82%  in 0 mi SSE 25.3 mph - - Fog Heavy Fog
8:55 PM 23.0 °F 6.6 °F 21.2 °F 93% 29.95 in 0.1 mi SSE 25.3 mph - N/A Fog , Snow Light Snow
9:55 PM 23.0 °F 9.2 °F 21.2 °F 93% 29.95 in 0.5 mi South 17.3 mph - N/A Fog , Snow Light Snow
10:55 PM 23.0 °F 11.1 °F 23.0 °F 100% 29.95 in 0.1 mi South 12.7 mph - N/A Fog , Snow Light Snow
11:00 PM 24 °F - 23 °F 94%  in 0 mi South 12.7 mph - - Snow Light Snow
11:55 PM 23.0 °F 9.6 °F 21.2 °F 93% 29.95 in 0.1 mi South 16.1 mph - N/A Fog , Snow Light Snow